{"data":{"norad_id":45133,"epoch":"2026-09-20T00:49:23.462112Z","epoch_age_seconds":54563,"freshness":"FRESH","line1":"1 45133U 20008C   26263.03429933 -.00000515  00000+0 -15118-2 0  9998","line2":"2 45133  87.8898  17.3881 0001754 101.8811 258.2513 13.10370450320769","mean_motion":13.1037045,"eccentricity":0.0001754,"inclination_deg":87.8898,"raan_deg":17.3881,"arg_perigee_deg":101.8811,"mean_anomaly_deg":258.2513,"bstar":-0.0015118,"rev_number":32076,"period_min":109.89258800822,"perigee_km":1220.3932867967,"apogee_km":1223.0593188433,"semimajor_km":7599.86330282,"source":"CELESTRAK","updated_at":"2026-09-20T09:00:44.545250Z"}}